Regional Weather Roundup
Issued by NWS

Home | Current Version | Previous Version | Text Only | Print | Product List | Glossary Off
Versions: 1 2 3 4 5 6 7 8 9 10 11 12 13 14 15 16 17 18 19 20 21 22 23 24 25 26 27 28 29 30 31 32 33 34 35 36 37 38 39 40 41 42 43 44 45 46 47 48 49 50

000
ASUS43 KMKX 211200
RWRWI

WISCONSIN REGIONAL WEATHER ROUNDUP
NATIONAL WEATHER SERVICE MILWAUKEE/SULLIVAN WI
700 AM CDT TUE OCT 21 2014

NOTE: "FAIR" INDICATES FEW OR NO CLOUDS BELOW 12,000 FEET WITH NO
SIGNIFICANT WEATHER AND/OR OBSTRUCTIONS TO VISIBILITY.

WIZ001-002-006>008-014>016-023>028-211300-
NORTHWEST WISCONSIN

CITY           SKY/WX    TMP DP  RH WIND       PRES   REMARKS
SUPERIOR ARPT  CLOUDY    43  38  81 E7        30.21S
ASHLAND        CLOUDY    43  37  79 NE6       30.23R
6HR MIN TEMP:  43; 6HR MAX TEMP:  44;

HAYWARD        CLOUDY    42  34  73 E8        30.21R
6HR MIN TEMP:  42; 6HR MAX TEMP:  46;

SIREN          CLOUDY    41  39  93 CALM      30.19S
CUMBERLAND     CLOUDY    43  34  70 E6        30.19R
RICE LAKE      CLOUDY    43  35  72 E3        30.20R
CHETEK         PTCLDY    42  35  75 NE5       30.19R
LADYSMITH      CLOUDY    42  35  75 NE5       30.20S
EAU CLAIRE     CLEAR     36  34  92 NE6       30.19R WCI  31
6HR MIN TEMP:  32; 6HR MAX TEMP:  39;

MENOMONIE      CLEAR     34  33  96 CALM      30.19R FOG
NEW RICHMOND   CLEAR     31  31 100 CALM      30.18R FOG
OSCEOLA        FOG       30  30 100 CALM      30.21R VSB 1/4
$$

WIZ003>005-009-010-017-018-211300-
NORTH CENTRAL WISCONSIN

CITY           SKY/WX    TMP DP  RH WIND       PRES   REMARKS
MANITOWISH WTR CLOUDY    37  35  92 NE7       30.19R WCI  31
ARBOR VITAE    CLOUDY    39  36  88 NE3       30.19R
WOODRUFF       CLOUDY    39  36  88 NE3       30.19R
RHINELANDER    CLOUDY    38  34  85 NE5       30.19R WCI  34
6HR MIN TEMP:  38; 6HR MAX TEMP:  39;

EAGLE RIVER    CLOUDY    37  35  90 NE8       30.18R WCI  31
LAND O LAKES   CLOUDY    37  34  90 NE7       30.20R WCI  31
PHILLIPS       CLOUDY    39  35  84 NE7       30.19R WCI  34
TOMAHAWK       CLOUDY    39  33  79 CALM      30.19R
MEDFORD        CLOUDY    39  34  81 NE9       30.17R WCI  33
MERRILL        CLOUDY    40  34  78 NE12      30.18R WCI  34
$$

WIZ029-030-035-036-043>047-211300-
CENTRAL WISCONSIN

CITY           SKY/WX    TMP DP  RH WIND       PRES   REMARKS
WAUSAU         CLOUDY    41  34  76 NE7       30.17R
6HR MIN TEMP:  41; 6HR MAX TEMP:  44;

MOSINEE        NOT AVBL
MARSHFIELD     CLOUDY    40  35  83 NE8       30.17R WCI  34
6HR MIN TEMP:  39; 6HR MAX TEMP:  48;

STEVENS POINT  CLOUDY    37  34  90 NE3       30.17R
WAUPACA        CLOUDY    43  37  79 NW5       30.17R
WAUTOMA        NOT AVBL
WISC RAPIDS    MOCLDY    39  34  82 NE5       30.19R
6HR MIN TEMP:  37; 6HR MAX TEMP:  48;

CAMP DOUGLAS   NOT AVBL
$$

WIZ011>013-019>022-031-037>040-048>050-211300-
NORTHEAST WISCONSIN

CITY           SKY/WX    TMP DP  RH WIND       PRES   REMARKS
ANTIGO         CLOUDY    39  35  85 N9        30.17R WCI  33
SHAWANO        CLOUDY    45  37  73 NE10      30.17R
OCONTO         CLOUDY    42  38  86 N6        30.16R
STURGEON BAY   CLOUDY    45  37  76 N12       30.14R
6HR MIN TEMP:  45; 6HR MAX TEMP:  45;

GREEN BAY      CLOUDY    43  37  79 N10       30.16R
6HR MIN TEMP:  43; 6HR MAX TEMP:  45;

MANITOWOC      NOT AVBL
APPLETON       MOCLDY    43  36  75 N8        30.16R
CLINTONVILLE   CLOUDY    43  36  75 NE3       30.16R
OSHKOSH        CLOUDY    45  37  73 N12       30.16R
6HR MIN TEMP:  43; 6HR MAX TEMP:  47;

$$

WIZ032>034-041-042-053>061-211300-
SOUTHWEST WISCONSIN

CITY           SKY/WX    TMP DP  RH WIND       PRES   REMARKS
LA CROSSE      CLEAR     38  35  89 CALM      30.18R
6HR MIN TEMP:  37; 6HR MAX TEMP:  43;

SPARTA         MOCLDY    28  28  99 CALM      30.19R
VIROQUA        CLEAR     35  35 100 CALM      30.15R
BOSCOBEL       FOG       34  33  96 SW3       30.18R VSB 1/4
6HR MIN TEMP:  32; 6HR MAX TEMP:  38;

PRAIRIE DU CHI CLOUDY    36  34  94 CALM      30.17R FOG
PLATTEVILLE    CLEAR     37  36  94 CALM      30.15R
$$

WIZ056-057-062-063-064-067-068-211300-
SOUTH CENTRAL WISCONSIN

CITY           SKY/WX    TMP DP  RH WIND       PRES   REMARKS
REEDSBURG      CLEAR     41  37  86 N6        30.16R
BARABOO/DELLS  CLEAR     40  35  83 NE7       30.16R
LONE ROCK      NOT AVBL
MINERAL POINT  CLEAR     39  37  93 N6        30.14R WCI  35
MADISON        PTCLDY    40  37  89 N7        30.17R
6HR MIN TEMP:  40; 6HR MAX TEMP:  49;

MIDDLETON      CLEAR     44  38  79 N8        30.15R
WATERTOWN      CLEAR     41  38  87 N8        30.13R
MONROE         MOCLDY    45  39  81 N8        30.13R
JANESVILLE     MOCLDY    48  37  66 N8        30.13R
$$

WIZ051-052-058>065-066-070>072-211300-
SOUTHEAST WISCONSIN

CITY           SKY/WX    TMP DP  RH WIND       PRES   REMARKS
MILWAUKEE      MOCLDY    45  38  76 N9        30.12R
6HR MIN TEMP:  45; 6HR MAX TEMP:  49;

WAUKESHA       MOCLDY    41  36  81 N5        30.13R
MILWAUKEE/TIMM CLOUDY    45  37  76 N10       30.11S
RACINE         CLOUDY    46  39  76 N10       30.12R
6HR MIN TEMP:  45; 6HR MAX TEMP:  49;

BURLINGTON     PTCLDY    42  36  78 N6        30.12R
KENOSHA        PTCLDY    44  39  82 N7        30.11R
6HR MIN TEMP:  44; 6HR MAX TEMP:  50;

FOND DU LAC    CLOUDY    45  37  73 NE16      30.15R
6HR MIN TEMP:  44; 6HR MAX TEMP:  48;

SHEBOYGAN      CLOUDY    45  37  73 N12       30.13R
6HR MIN TEMP:  43; 6HR MAX TEMP:  45;

WEST BEND      CLOUDY    43  36  75 N7        30.12R
JUNEAU         CLOUDY    42  37  83 N9        30.15R
$$

LSZ147-162-211300-
LAKE SUPERIOR

STATION/POSITION TIME  TEMP    WIND        PRES    WAVE
                       AIR SEA DIR/SP/G            HT/PER
                 (UTC) (F)     (DEG/KT/KT) (MB)    (FT/S)
W MID LAKE BUOY  1050   41 46   60/ 10/ 12 1024.0R   3/ 5
DEVILS ISLAND    1100   43      70/ 13/ 16 1024.3R
PORT WING        1100   44      80/  2/  5 1023.4R
SAXON HARBOR     1100   44      80/  5/  9 1023.0R
$$

LMZ867-665-643>646-211300-
LAKE MICHIGAN

STATION/POSITION TIME  TEMP    WIND        PRES    WAVE
                       AIR SEA DIR/SP/G            HT/PER
                 (UTC) (F)     (DEG/KT/KT) (MB)    (FT/S)
CHAMBERS ISLAND  1100   45     340/ 21/ 25 1020.3R
N MID LAKE BUOY  1050   46 51  360/ 19/ 23 1019.2R   4/ 5
NORTHPORT PIER   1100   45     360/ 19/ 23 1020.3R
KEWAUNEE LAKESHO 1100   45     350/  7/ 13 1018.9R
SHEBOYGAN LAKESH 1100   46 50  340/ 14/ 18 1020.0R
PORT WASHINGTON  1100   46     330/  7/ 11 1020.0R
ATWATER BUOY     1100   48     350/ 17/ 21 1019.9R
MILWAUKEE LAKESH 1100   46     340/ 11/ 16   N/A
S MID LAKE BUOY  1050   49 54  340/ 21/ 25 1017.5R   6/ 7
KENOSHA   LAKESH 1100   47     330/ 11/ 13 1018.6R
$$

TC  - TEMPERATURE IN CELSIUS
VSB - VISIBILITY IN STATUTE MILES
WCI - WIND CHILL INDEX
HX  - HEAT INDEX



USA.gov is the U.S. government's official web portal to all federal, state and local government web resources and services.